Fort Meade, MD

7:10 PM EDT on March 23, 2017 (GMT -0400)
Tipton

Weather History for KFME - February, 2014

Change the Weather History Date:

Thursday, February 6, 2014

  Actual Average (KBWI) Record (KBWI)
Temperature  
Mean Temperature 30 °F -  
Max Temperature 33 °F 40 °F 72 °F (2008)
Min Temperature 26 °F 24 °F 1 °F (1895)
Degree Days  
Heating Degree Days 36    
Moisture  
Dew Point 18 °F    
Average Humidity 60    
Maximum Humidity 80    
Minimum Humidity 44    
Precipitation  
Precipitation 0.00 in - - ()
Sea Level Pressure  
Sea Level Pressure 30.30 in    
Wind  
Wind Speed 8 mph (NW)    
Max Wind Speed 15 mph    
Max Gust Speed 22 mph    
Visibility 10 miles    
Events      
Averages and records for this station are not official NWS values.
T = Trace of Precipitation, MM = Missing Value Source: NWS Daily Summary

Daily Weather History Graph

Daily Weather History Graph

Search for Another Location

Airport or City:

Trip Planner

Search our weather history database for the weather conditions in past years. The results will help you decide how hot, cold, wet, or windy it might be!

Date:

Astronomy

Feb. 06, 2014 Rise Set
Actual Time 7:08 AM EST 5:33 PM EST
Civil Twilight 6:40 AM EST 6:01 PM EST
Nautical Twilight 6:09 AM EST 6:33 PM EST
Astronomical Twilight 5:38 AM EST 7:04 PM EST
Moon 11:04 AM EST (2/6) 12:22 AM EST (2/6)
Length of Visible Light 11h 20m
Length of Day
10h 25m
Waxing Crescent, 49% of the Moon is Illuminated
Feb 6
Waxing Crescent
Feb 6
First Quarter
Feb 14
Full
Feb 22
Last Quarter
Mar 1
New

Hourly Weather History & Observations

Time (EST) Temp. Windchill Dew Point Humidity Pressure Visibility Wind Dir Wind Speed Gust Speed Precip Events Conditions
12:00 AM 32.0 °F 22.1 °F 21.2 °F 64% 30.10 in 10.0 mi WNW 13.8 mph 21.9 mph N/A   Clear
12:18 AM 32.0 °F 24.2 °F 21.2 °F 64% 30.11 in 10.0 mi WNW 9.2 mph 21.9 mph N/A   Clear
12:39 AM 32.0 °F 23.6 °F 21.2 °F 64% 30.13 in 10.0 mi NW 10.4 mph 16.1 mph N/A   Clear
1:00 AM 32.0 °F 22.5 °F 21.2 °F 64% 30.14 in 10.0 mi NW 12.7 mph 20.7 mph N/A   Clear
1:18 AM 32.0 °F 22.1 °F 19.4 °F 60% 30.16 in 10.0 mi NNW 13.8 mph 20.7 mph N/A   Clear
1:39 AM 32.0 °F 23.0 °F 19.4 °F 60% 30.17 in 10.0 mi NNW 11.5 mph 21.9 mph N/A   Clear
2:00 AM 30.2 °F 21.3 °F 19.4 °F 64% 30.19 in 10.0 mi NW 10.4 mph 20.7 mph N/A   Clear
2:18 AM 30.2 °F 21.3 °F 19.4 °F 64% 30.19 in 10.0 mi NNW 10.4 mph 18.4 mph N/A   Clear
2:39 AM 30.2 °F 24.3 °F 19.4 °F 64% 30.20 in 10.0 mi NW 5.8 mph - N/A   Clear
3:00 AM 30.2 °F 23.4 °F 19.4 °F 64% 30.21 in 10.0 mi NNW 6.9 mph 16.1 mph N/A   Scattered Clouds
3:18 AM 30.2 °F 20.2 °F 19.4 °F 64% 30.22 in 10.0 mi NNW 12.7 mph 16.1 mph N/A   Scattered Clouds
3:39 AM 30.2 °F 23.4 °F 19.4 °F 64% 30.22 in 10.0 mi NNW 6.9 mph 16.1 mph N/A   Scattered Clouds
4:00 AM 30.2 °F 20.8 °F 17.6 °F 60% 30.24 in 10.0 mi NNW 11.5 mph 18.4 mph N/A   Scattered Clouds
4:18 AM 30.2 °F 21.9 °F 17.6 °F 60% 30.25 in 10.0 mi NNW 9.2 mph - N/A   Clear
4:39 AM 28.4 °F 19.7 °F 17.6 °F 64% 30.26 in 10.0 mi NNW 9.2 mph 20.7 mph N/A   Clear
5:00 AM 28.4 °F 19.7 °F 17.6 °F 64% 30.26 in 10.0 mi NNW 9.2 mph 16.1 mph N/A   Clear
5:21 AM 28.4 °F 19.7 °F 17.6 °F 64% 30.28 in 10.0 mi NNW 9.2 mph 18.4 mph N/A   Scattered Clouds
5:39 AM 28.4 °F 20.4 °F 17.6 °F 64% 30.28 in 10.0 mi NNW 8.1 mph 16.1 mph N/A   Scattered Clouds
6:00 AM 28.4 °F 17.0 °F 17.6 °F 64% 30.29 in 10.0 mi North 15.0 mph 19.6 mph N/A   Scattered Clouds
6:21 AM 28.4 °F 18.5 °F 14.0 °F 55% 30.30 in 10.0 mi NNW 11.5 mph 19.6 mph N/A   Scattered Clouds
6:39 AM 28.4 °F 23.3 °F 14.0 °F 55% 30.31 in 10.0 mi North 4.6 mph - N/A   Clear
7:00 AM 28.4 °F 18.5 °F 14.0 °F 55% 30.32 in 10.0 mi North 11.5 mph - N/A   Clear
7:21 AM 26.6 °F 16.8 °F 14.0 °F 59% 30.33 in 10.0 mi North 10.4 mph - N/A   Clear
7:39 AM 26.6 °F 17.5 °F 14.0 °F 59% 30.34 in 10.0 mi NNE 9.2 mph - N/A   Clear
8:00 AM 28.4 °F 20.4 °F 14.0 °F 55% 30.35 in 10.0 mi NNW 8.1 mph - N/A   Clear
8:21 AM 28.4 °F 19.7 °F 14.0 °F 55% 30.35 in 10.0 mi North 9.2 mph - N/A   Clear
8:39 AM 28.4 °F 20.4 °F 14.0 °F 55% 30.36 in 10.0 mi North 8.1 mph - N/A   Clear
9:00 AM 28.4 °F 21.2 °F 14.0 °F 55% 30.37 in 10.0 mi NNW 6.9 mph - N/A   Clear
9:21 AM 30.2 °F 25.4 °F 14.0 °F 51% 30.36 in 10.0 mi NNW 4.6 mph - N/A   Clear
9:39 AM 30.2 °F 24.3 °F 14.0 °F 51% 30.37 in 10.0 mi NNW 5.8 mph - N/A   Clear
10:00 AM 30.2 °F 23.4 °F 15.8 °F 55% 30.37 in 10.0 mi North 6.9 mph - N/A   Clear
10:21 AM 32.0 °F 24.2 °F 15.8 °F 51% 30.37 in 10.0 mi NW 9.2 mph - N/A   Clear
10:39 AM 32.0 °F 25.6 °F 15.8 °F 51% 30.37 in 10.0 mi North 6.9 mph - N/A   Clear
11:00 AM 32.0 °F 24.2 °F 15.8 °F 51% 30.37 in 10.0 mi NW 9.2 mph - N/A   Clear
11:21 AM 32.0 °F 24.8 °F 17.6 °F 55% 30.37 in 10.0 mi NW 8.1 mph - N/A   Clear
11:39 AM 32.0 °F 24.2 °F 17.6 °F 55% 30.36 in 10.0 mi WNW 9.2 mph - N/A   Clear
12:00 PM 32.0 °F 24.8 °F 15.8 °F 51% 30.35 in 10.0 mi NNW 8.1 mph - N/A   Clear
12:21 PM 32.0 °F 24.8 °F 14.0 °F 48% 30.34 in 10.0 mi West 8.1 mph - N/A   Clear
12:39 PM 32.0 °F 24.2 °F 14.0 °F 48% 30.33 in 10.0 mi West 9.2 mph - N/A   Clear
1:00 PM 32.0 °F 26.4 °F 14.0 °F 48% 30.33 in 10.0 mi NNW 5.8 mph - N/A   Clear
1:21 PM 33.8 °F 27.0 °F 15.8 °F 48% 30.33 in 10.0 mi WNW 8.1 mph - N/A   Clear
1:42 PM 33.8 °F 27.0 °F 15.8 °F 48% 30.32 in 10.0 mi NNW 8.1 mph - N/A   Clear
2:00 PM 33.8 °F 28.6 °F 14.0 °F 44% 30.31 in 10.0 mi WNW 5.8 mph - N/A   Clear
2:21 PM 32.0 °F 28.7 °F 14.0 °F 48% 30.31 in 10.0 mi WNW 3.5 mph - N/A   Clear
2:42 PM 33.8 °F - 14.0 °F 44% 30.31 in 10.0 mi Calm Calm - N/A   Clear
3:00 PM 33.8 °F 26.4 °F 14.0 °F 44% 30.31 in 10.0 mi WNW 9.2 mph - N/A   Clear
3:21 PM 33.8 °F 29.6 °F 14.0 °F 44% 30.30 in 10.0 mi NNW 4.6 mph - N/A   Clear
3:42 PM 33.8 °F 27.0 °F 14.0 °F 44% 30.30 in 10.0 mi WNW 8.1 mph - N/A   Clear
4:00 PM 33.8 °F 28.6 °F 14.0 °F 44% 30.31 in 10.0 mi WNW 5.8 mph - N/A   Clear
4:21 PM 32.0 °F 27.5 °F 14.0 °F 48% 30.31 in 10.0 mi NNW 4.6 mph - N/A   Clear
4:42 PM 32.0 °F 28.7 °F 14.0 °F 48% 30.32 in 10.0 mi WNW 3.5 mph - N/A   Clear
5:00 PM 32.0 °F 28.7 °F 15.8 °F 51% 30.31 in 10.0 mi NNW 3.5 mph - N/A   Clear
5:21 PM 32.0 °F 28.7 °F 17.6 °F 55% 30.31 in 10.0 mi NW 3.5 mph - N/A   Clear
5:42 PM 30.2 °F - 17.6 °F 60% 30.31 in 10.0 mi Calm Calm - N/A   Clear
6:00 PM 30.2 °F - 17.6 °F 60% 30.31 in 10.0 mi Calm Calm - N/A   Clear
6:21 PM 28.4 °F - 17.6 °F 64% 30.31 in 10.0 mi Calm Calm - N/A   Clear
6:42 PM 28.4 °F - 21.2 °F 74% 30.31 in 10.0 mi Calm Calm - N/A   Clear
7:00 PM 28.4 °F - 21.2 °F 74% 30.32 in 10.0 mi Calm Calm - N/A   Clear
7:21 PM 28.4 °F - 21.2 °F 74% 30.32 in 10.0 mi Calm Calm - N/A   Clear
7:42 PM 28.4 °F - 21.2 °F 74% 30.32 in 10.0 mi Calm Calm - N/A   Clear
8:00 PM 28.4 °F - 21.2 °F 74% 30.32 in 10.0 mi Calm Calm - N/A   Clear
8:21 PM 28.4 °F - 21.2 °F 74% 30.32 in 10.0 mi Calm Calm - N/A   Clear
8:42 PM 28.4 °F - 23.0 °F 80% 30.33 in 10.0 mi Calm Calm - N/A   Clear
9:00 PM 28.4 °F - 23.0 °F 80% 30.34 in 10.0 mi Calm Calm - N/A   Clear
9:21 PM 28.4 °F - 23.0 °F 80% 30.34 in 10.0 mi Calm Calm - N/A   Clear
9:42 PM 28.4 °F - 23.0 °F 80% 30.34 in 10.0 mi Calm Calm - N/A   Clear
10:03 PM 28.4 °F - 23.0 °F 80% 30.34 in 10.0 mi Calm Calm - N/A   Clear
10:21 PM 28.4 °F - 23.0 °F 80% 30.34 in 10.0 mi Calm Calm - N/A   Clear
10:42 PM 28.4 °F - 23.0 °F 80% 30.34 in 10.0 mi Calm Calm - N/A   Clear
11:03 PM 28.4 °F - 23.0 °F 80% 30.34 in 10.0 mi Calm Calm - N/A   Clear
11:21 PM 28.4 °F - 23.0 °F 80% 30.33 in 10.0 mi Calm Calm - N/A   Clear
11:42 PM 28.4 °F - 23.0 °F 80% 30.32 in 10.0 mi Calm Calm - N/A   Clear